timestamp,surface_pressure_avg,surface_temp_avg,battery_voltage,lat,long
2019-09-27 00:00:00+00:00,334.943,9.6,13.05,47.84626,-54.09684
2019-09-27 00:10:00+00:00,326.2814,9.68,12.97,47.84626,-54.09684
2019-09-27 00:20:00+00:00,318.228,9.7,13.05,47.84626,-54.09684
2019-09-27 00:30:00+00:00,312.2429,9.72,13.05,47.84626,-54.09684
2019-09-27 00:40:00+00:00,306.9497,9.73,13.05,47.84626,-54.09684
2019-09-27 00:50:00+00:00,297.0114,9.7,13.05,47.84626,-54.09684
2019-09-27 01:00:00+00:00,289.4314,9.7,12.97,47.84626,-54.09684
2019-09-27 01:10:00+00:00,287.118,9.7,12.97,47.84626,-54.09684
2019-09-27 01:20:00+00:00,281.8897,9.7,13.05,47.84626,-54.09684
2019-09-27 01:30:00+00:00,268.0614,9.7,13.05,47.84626,-54.09684
2019-09-27 01:40:00+00:00,257.738,9.7,13.05,47.84626,-54.09684
2019-09-27 01:50:00+00:00,250.9998,9.7,13.05,47.84626,-54.09684
2019-09-27 02:00:00+00:00,246.6047,9.75,12.97,47.84626,-54.09684
2019-09-27 02:10:00+00:00,241.0881,9.9,12.97,47.84626,-54.09684
2019-09-27 02:20:00+00:00,234.6265,9.9,13.05,47.84626,-54.09684
2019-09-27 02:30:00+00:00,228.3464,9.9,13.05,47.84626,-54.09684
2019-09-27 02:40:00+00:00,223.6515,9.96,13.05,47.84626,-54.09684
2019-09-27 02:50:00+00:00,218.8165,10.1,13.05,47.84626,-54.09684
2019-09-27 03:00:00+00:00,212.2448,10.23,12.97,47.84626,-54.09684
2019-09-27 03:10:00+00:00,207.2014,10.2,12.89,47.84626,-54.09684
2019-09-27 03:20:00+00:00,206.0481,10.1,12.97,47.84626,-54.09684
2019-09-27 03:30:00+00:00,201.2031,10.0,12.97,47.84626,-54.09684
2019-09-27 03:40:00+00:00,196.6681,9.9,13.05,47.84626,-54.09684
2019-09-27 03:50:00+00:00,195.5064,9.8,13.05,47.84626,-54.09684
2019-09-27 04:00:00+00:00,198.6298,9.6,12.97,47.84626,-54.09684
2019-09-27 04:10:00+00:00,201.5848,9.47,12.89,47.84626,-54.09684
2019-09-27 04:20:00+00:00,194.1148,9.4,12.97,47.84626,-54.09684
2019-09-27 04:30:00+00:00,192.3148,9.5,12.97,47.84626,-54.09684
2019-09-27 04:40:00+00:00,197.7314,9.58,12.97,47.84626,-54.09684
2019-09-27 04:50:00+00:00,197.4048,9.6,12.97,47.84626,-54.09684
2019-09-27 05:00:00+00:00,199.3382,9.61,12.97,47.84626,-54.09684
2019-09-27 05:10:00+00:00,205.5214,9.67,12.89,47.84626,-54.09684
2019-09-27 05:20:00+00:00,210.9415,9.68,12.97,47.84626,-54.09684
2019-09-27 05:30:00+00:00,210.7048,9.68,12.97,47.84626,-54.09684
2019-09-27 05:40:00+00:00,212.3131,9.69,12.97,47.84626,-54.09684
2019-09-27 05:50:00+00:00,221.3648,9.69,12.97,47.84626,-54.09684
2019-09-27 06:00:00+00:00,228.1881,9.69,12.89,47.84626,-54.09684
2019-09-27 06:10:00+00:00,232.6464,9.68,12.89,47.84626,-54.09684
2019-09-27 06:20:00+00:00,241.2148,9.7,12.97,47.84626,-54.09684
2019-09-27 06:30:00+00:00,250.4731,9.73,12.97,47.84626,-54.09684
2019-09-27 06:40:00+00:00,253.0898,9.8,12.97,47.84626,-54.09684
2019-09-27 06:50:00+00:00,258.4231,9.8,12.97,47.84626,-54.09684
2019-09-27 07:00:00+00:00,269.2914,9.8,12.89,47.84626,-54.09684
2019-09-27 07:10:00+00:00,277.7581,9.79,12.81,47.84626,-54.09684
2019-09-27 07:20:00+00:00,284.6213,9.7,12.97,47.84626,-54.09684
2019-09-27 07:30:00+00:00,296.8197,9.7,12.97,47.84626,-54.09684
2019-09-27 07:40:00+00:00,305.8013,9.7,12.97,47.84626,-54.09684
2019-09-27 07:50:00+00:00,308.6997,9.75,12.97,47.84626,-54.09684
2019-09-27 08:00:00+00:00,318.0213,9.7,12.89,47.84626,-54.09684
2019-09-27 08:10:00+00:00,328.168,9.7,12.81,47.84626,-54.09684
2019-09-27 08:20:00+00:00,329.803,9.7,12.89,47.84626,-54.09684
2019-09-27 08:30:00+00:00,332.8346,9.7,12.89,47.84626,-54.09684
2019-09-27 08:40:00+00:00,344.0546,9.6,12.97,47.84626,-54.09684
2019-09-27 08:50:00+00:00,353.5446,9.6,12.97,47.84626,-54.09684
2019-09-27 09:00:00+00:00,356.5762,9.6,12.89,47.84626,-54.09684
2019-09-27 09:10:00+00:00,356.4446,9.6,12.81,47.84626,-54.09684
2019-09-27 09:20:00+00:00,361.6962,9.59,12.89,47.84626,-54.09684
2019-09-27 09:30:00+00:00,361.358,9.59,12.89,47.84626,-54.09684
2019-09-27 09:40:00+00:00,363.0513,9.6,12.89,47.84626,-54.09684
2019-09-27 09:50:00+00:00,368.6296,9.6,12.89,47.84626,-54.09684
2019-09-27 10:00:00+00:00,369.248,9.6,12.81,47.84626,-54.09684
2019-09-27 10:10:00+00:00,364.5912,9.6,12.81,47.84626,-54.09684
2019-09-27 10:20:00+00:00,365.1613,9.6,12.89,47.84626,-54.09684
2019-09-27 10:30:00+00:00,366.3445,9.6,12.89,47.84626,-54.09684
2019-09-27 10:40:00+00:00,364.5513,9.62,12.89,47.84626,-54.09684
2019-09-27 10:50:00+00:00,359.7111,9.68,12.97,47.84626,-54.09684
2019-09-27 11:00:00+00:00,360.8896,9.7,12.89,47.84626,-54.09684
2019-09-27 11:10:00+00:00,355.7913,9.7,12.81,47.84626,-54.09684
2019-09-27 11:20:00+00:00,352.028,9.7,12.97,47.84626,-54.09684
2019-09-27 11:30:00+00:00,354.6296,9.7,12.97,47.84626,-54.09684
2019-09-27 11:40:00+00:00,347.293,9.7,12.97,47.84626,-54.09684
2019-09-27 11:50:00+00:00,335.7413,9.7,13.05,47.84626,-54.09684
2019-09-27 12:00:00+00:00,327.4263,9.7,12.97,47.84626,-54.09684
2019-09-27 12:10:00+00:00,323.4763,9.72,12.89,47.84626,-54.09684
2019-09-27 12:20:00+00:00,316.0997,9.75,12.97,47.84626,-54.09684
2019-09-27 12:30:00+00:00,309.6714,9.73,13.05,47.84626,-54.09684
2019-09-27 12:40:00+00:00,310.2797,9.77,13.13,47.84626,-54.09684
2019-09-27 12:50:00+00:00,306.9363,9.8,13.13,47.84626,-54.09684
2019-09-27 13:00:00+00:00,298.6364,9.8,13.05,47.84626,-54.09684
2019-09-27 13:10:00+00:00,286.9947,9.8,13.05,47.84626,-54.09684
2019-09-27 13:20:00+00:00,275.1263,9.8,13.13,47.84626,-54.09684
2019-09-27 13:30:00+00:00,261.1897,9.8,13.21,47.84626,-54.09684
2019-09-27 13:40:00+00:00,244.8748,9.8,13.29,47.84626,-54.09684
2019-09-27 13:50:00+00:00,234.2065,9.8,13.37,47.84626,-54.09684
2019-09-27 14:00:00+00:00,229.9581,9.8,13.29,47.84626,-54.09684
2019-09-27 14:10:00+00:00,223.6581,9.82,13.29,47.84626,-54.09684
2019-09-27 14:20:00+00:00,221.7881,9.86,13.44,47.84626,-54.09684
2019-09-27 14:30:00+00:00,221.9865,9.88,13.44,47.84626,-54.09684
2019-09-27 14:40:00+00:00,213.8331,9.89,13.37,47.84626,-54.09684
2019-09-27 14:50:00+00:00,207.7198,9.9,13.37,47.84626,-54.09684
2019-09-27 15:00:00+00:00,208.5714,9.9,13.29,47.84626,-54.09684
2019-09-27 15:10:00+00:00,197.8164,9.9,13.29,47.84626,-54.09684
2019-09-27 15:20:00+00:00,186.6514,9.9,13.37,47.84626,-54.09684
2019-09-27 15:30:00+00:00,187.8898,9.9,13.37,47.84626,-54.09684
2019-09-27 15:40:00+00:00,187.4448,9.9,13.37,47.84626,-54.09684
2019-09-27 15:50:00+00:00,179.8848,9.9,13.37,47.84626,-54.09684
2019-09-27 16:00:00+00:00,181.1264,9.9,13.37,47.84626,-54.09684
2019-09-27 16:10:00+00:00,190.4998,9.9,13.29,47.84626,-54.09684
2019-09-27 16:20:00+00:00,194.5965,9.9,13.37,47.84626,-54.09684
2019-09-27 16:30:00+00:00,197.3748,9.89,13.37,47.84626,-54.09684
2019-09-27 16:40:00+00:00,192.0464,9.9,13.37,47.84626,-54.09684
2019-09-27 16:50:00+00:00,184.8131,9.9,13.37,47.84626,-54.09684
2019-09-27 17:00:00+00:00,189.6414,9.9,13.29,47.84626,-54.09684
2019-09-27 17:10:00+00:00,198.1898,9.9,13.21,47.84626,-54.09684
2019-09-27 17:20:00+00:00,197.4248,9.9,13.29,47.84626,-54.09684
2019-09-27 17:30:00+00:00,197.6631,9.9,13.29,47.84626,-54.09684
2019-09-27 17:40:00+00:00,204.9648,9.9,13.29,47.84626,-54.09684
2019-09-27 17:50:00+00:00,204.7681,9.9,13.29,47.84626,-54.09684
2019-09-27 18:00:00+00:00,209.0764,9.9,13.29,47.84626,-54.09684
2019-09-27 18:10:00+00:00,222.5698,9.9,13.21,47.84626,-54.09684
2019-09-27 18:20:00+00:00,225.9364,9.9,13.21,47.84626,-54.09684
2019-09-27 18:30:00+00:00,227.313,9.9,13.37,47.84626,-54.09684
2019-09-27 18:40:00+00:00,228.7464,9.9,13.37,47.84626,-54.09684
2019-09-27 18:50:00+00:00,240.0548,9.9,13.29,47.84626,-54.09684
2019-09-27 19:00:00+00:00,249.4097,9.8,13.21,47.84626,-54.09684
2019-09-27 19:10:00+00:00,247.9648,9.84,13.13,47.84626,-54.09684
2019-09-27 19:20:00+00:00,250.358,9.9,13.21,47.84626,-54.09684
2019-09-27 19:30:00+00:00,269.4414,9.9,13.29,47.84626,-54.09684
2019-09-27 19:40:00+00:00,280.9381,9.8,13.29,47.84626,-54.09684
2019-09-27 19:50:00+00:00,279.1047,9.85,13.21,47.84626,-54.09684
2019-09-27 20:00:00+00:00,285.733,9.9,13.13,47.84626,-54.09684
2019-09-27 20:10:00+00:00,303.5413,9.89,13.05,47.84626,-54.09684
2019-09-27 20:20:00+00:00,312.5214,9.8,13.05,47.84626,-54.09684
2019-09-27 20:30:00+00:00,316.488,9.8,13.05,47.84626,-54.09684
2019-09-27 20:40:00+00:00,328.4696,9.8,13.05,47.84626,-54.09684
2019-09-27 20:50:00+00:00,345.873,9.8,13.05,47.84626,-54.09684
2019-09-27 21:00:00+00:00,349.6563,9.8,12.97,47.84626,-54.09684
2019-09-27 21:10:00+00:00,347.7512,9.84,12.97,47.84626,-54.09684
2019-09-27 21:20:00+00:00,356.8779,9.83,13.05,47.84626,-54.09684
2019-09-27 21:30:00+00:00,372.488,9.8,13.05,47.84626,-54.09684
2019-09-27 21:40:00+00:00,372.7329,9.81,13.05,47.84626,-54.09684
2019-09-27 21:50:00+00:00,368.6862,9.8,13.05,47.84626,-54.09684
2019-09-27 22:00:00+00:00,378.3563,9.8,12.97,47.84626,-54.09684
2019-09-27 22:10:00+00:00,387.0913,9.8,12.89,47.84626,-54.09684
2019-09-27 22:20:00+00:00,385.1046,9.8,12.97,47.84626,-54.09684
2019-09-27 22:30:00+00:00,386.3379,9.8,12.97,47.84626,-54.09684
2019-09-27 22:40:00+00:00,392.2346,9.8,12.97,47.84626,-54.09684
2019-09-27 22:50:00+00:00,396.9778,9.8,12.97,47.84626,-54.09684
2019-09-27 23:00:00+00:00,395.7079,9.8,12.89,47.84626,-54.09684
2019-09-27 23:10:00+00:00,391.5513,9.8,12.89,47.84626,-54.09684
2019-09-27 23:20:00+00:00,394.8046,9.8,12.97,47.84626,-54.09684
2019-09-27 23:30:00+00:00,395.8513,9.8,12.97,47.84626,-54.09684
2019-09-27 23:40:00+00:00,385.1779,9.84,12.97,47.84626,-54.09684
2019-09-27 23:50:00+00:00,379.2363,9.8,12.97,47.84626,-54.09684
